sat.trackr.live / text

‹ back to catalog

AE5RC

NORAD 66677 · 2025-276M

PAYLOAD ACTIVE UNKNOWN

§ Identity

Operator
Country
JPN
Launch date
2025-11-28
Launch site
AFWTR
Launch vehicle
Mass (kg)
RCS (m²)

External: N2YO · Heavens-Above · Gunter

§ Orbital elements

Epoch: 2026-09-20T22:49:47.564544Z

Period
94.43 min
Inclination
97.4097°
Eccentricity
0.0005696
Mean motion
15.24914244 rev/d
Perigee alt
487.1 km
Apogee alt
495.0 km
Semi-major
6,869.2 km
B*
3.7040e-4
RAAN
336.7856°
Arg perigee
53.4907°
Mean anomaly
306.6855°
Rev number
4,503

§ Raw data

AE5RC1 66677U 25276M   26263.95124496  .00009155  00000+0  37040-3 0  99992 66677  97.4097 336.7856 0005696  53.4907 306.6855 15.24914244 45033

JSON: /api/v1/satellites/66677 · /tle

For live sub-satellite position, see the globe view (requires WebGL).

§ Visibility from observer

Set your observer location to see the next 7 days of passes ≥ 10°. The values pass through the URL so the page stays shareable.

No JS? Fill the form by hand. The geolocation button needs JavaScript.